Regional Weather Roundup
Issued by NWS

Home | Current Version | Previous Version | Text Only | Print | Product List | Glossary On
Versions: 1 2 3 4 5 6 7 8 9 10 11 12 13 14 15 16 17 18 19 20 21 22 23 24 25 26 27 28 29 30 31 32 33 34 35 36 37 38 39 40 41 42 43 44 45 46 47 48 49 50
000
ASHW40 PHFO 022210
RWRHI

WEATHER ROUNDUP FOR HAWAII
NATIONAL WEATHER SERVICE HONOLULU HI
1200 PM HST WED SEP 02 2015

THIS IS AN AUTOMATED REPORT THAT HAS NOT BEEN QUALITY CONTROLLED.

NOTE..."FAIR" INDICATES FEW OR NO CLOUDS BELOW 12,000 FEET WITH NO
SIGNIFICANT WEATHER AND/OR OBSTRUCTIONS TO VISIBILITY.

* - THESE SITES REPORT LIMITED FIELDS

HIZ001>004-022300-
KAUAI-NIIHAU-

CITY           SKY/WX    TMP DP  RH WIND       PRES   REMARKS
LIHUE APT      MOSUNNY   85  78  80 SE12      29.85F HX  96
PORT ALLEN*    NOT AVBL
POIPU*           N/A     86 N/A N/A S5          N/A
PRINCEVILLE*     N/A     84 N/A N/A MISG        N/A
KOKOLE POINT*  NOT AVBL
MOLOAA DAIRY*    N/A     84  77  79 VRB2G10     N/A  HX  94
WAIMEA HTS*    NOT AVBL
PUU OPAE*      NOT AVBL
PUU LUA*       NOT AVBL
MAKAHA RIDGE*  NOT AVBL
$$

HIZ005>011-022300-
OAHU-

CITY           SKY/WX    TMP DP  RH WIND       PRES   REMARKS
HONOLULU       MOSUNNY   85  77  77 SW10      29.85F HX  95
KALAELOA       MOSUNNY   86  76  71 SW9       29.86F HX  96
KANEOHE MCB    MOSUNNY   89  72  56 W12G17    29.81F HX  96
WHEELER FIELD  FAIR      85  73  68 S9        29.85F HX  91
BELLOWS*       NOT AVBL
KAHUKU*        NOT AVBL
WHEELER*       NOT AVBL
WAIANAE HARBOR NOT AVBL
DILLINGHAM*      N/A    N/A N/A N/A MISG        N/A
KAHUKU TRN*      N/A     90  75  62 W5G12       N/A  HX 100
KAWAILOA*        N/A     82  72  69 SW7G15      N/A
KII*             N/A     86  75  70 W9          N/A  HX  95
MAKUA RANGE*     N/A     84  75  74 SW6G18      N/A  HX  92
OAHU FOREST NW NOT AVBL
SCHOFIELD BRK*   N/A     70  57  64 MISG        N/A
SCHOFIELD S*   NOT AVBL
WAIANAE VLY*   NOT AVBL
KUAOKALA*      NOT AVBL
HONOULIUULI*   NOT AVBL
MOKUOLOE IS*   NOT AVBL
PALEHUA*       NOT AVBL
WAIAWA PHB*    NOT AVBL
$$

HIZ012>013-022300-
MOLOKAI-

CITY           SKY/WX    TMP DP  RH WIND       PRES   REMARKS
MOLOKAI AIRPT  MOSUNNY   87  73  62 S13       29.88F HX  94
KALAUPAPA      NOT AVBL
MAKAPULAPAI*   NOT AVBL
MOLOKAI 1*     NOT AVBL
PUU ALII*      NOT AVBL
$$

HIZ016-022300-
KAHOOLAWE-

CITY           SKY/WX    TMP DP  RH WIND       PRES   REMARKS
KAHOOLAWE*     NOT AVBL
HAKIOAWA*      NOT AVBL
HONOKANAIA*      N/A     88  76  68 SE10      29.83S HX  99
KANELOA*         N/A     82  77  83 S8G14     29.96S HX  91
KEALIALALO*    NOT AVBL
LUA MAKIKA*    NOT AVBL
$$

HIZ014>015-022300-
LANAI-

CITY           SKY/WX    TMP DP  RH WIND       PRES   REMARKS
LANAI CITY     PTSUNNY   82  73  74 S10       29.94F
LANAI 1*       NOT AVBL
$$

HIZ017>028-022300-
MAUI-

CITY           SKY/WX    TMP DP  RH WIND       PRES   REMARKS
KAHULUI        MOSUNNY   90  74  59 SW18G25   29.85F HX  99
KAPALUA-W MAUI MOSUNNY   90  73  58 S17G25    29.86F HX  98
HANA AIRPORT   PTSUNNY   86  73  66 N6        29.89S HX  93
HANA*          NOT AVBL
HALEAKALA SUMM   N/A     59  48  67 SE9G22      N/A
MAALAEA BAY*   NOT AVBL
HALEAKALA*     NOT AVBL
KAUPO GAP*     NOT AVBL
KULA 1*          N/A     68  63  85 NW3G9       N/A
$$

HIZ023>026-022300-
BIG ISLAND OF HAWAII COAST AND LOWER SLOPES-

CITY           SKY/WX    TMP DP  RH WIND       PRES   REMARKS
KAILUA KONA    MOSUNNY   89  76  65 S14       29.86F HX 100
HILO           MOSUNNY   88  76  67 N13       29.86F HX  99
HONOKAA*       NOT AVBL
KAWAIHAE MWT*  NOT AVBL
KAWAIHAE*        N/A     84 N/A N/A W12         N/A
SOUTH POINT*   NOT AVBL
UPOLU AIRPORT* NOT AVBL
KAMUELA*       NOT AVBL
HAKALAU*         N/A     70  61  72 E6G12       N/A
KALOKO-HONOKO* NOT AVBL
PALI 2*          N/A     79  72  78 S8          N/A
KEALAKOMO*     NOT AVBL
KAUPULEHU*     NOT AVBL
KAPAPALA*        N/A     82  76  80 S6G12       N/A
LOWER KAHUKU*  NOT AVBL
PUHE CS*       NOT AVBL
PUHO CS*       NOT AVBL
PTA KEAMUKU*     N/A     73  66  78 CALM        N/A
WAIKOLOA*      NOT AVBL
$$

HIZ027>028-022300-
BIG ISLAND OF HAWAII INTERIOR AND SUMMMITS-

CITY           SKY/WX    TMP DP  RH WIND       PRES   REMARKS
BRADSHAW FIELD LGT RAIN  70  61  73 W6G14     30.26F
MK VISITOR CEN   N/A     59  50  72 S8          N/A
MAUNA KEA*       N/A     45  36  70 W9          N/A
MAUNA LOA*       N/A     48  45  87 MISG        N/A
MAUNA LOA 1*   NOT AVBL
PTA KIPUKA*      N/A    N/A N/A N/A N7G15       N/A
PTA RANGE 17*    N/A    N/A N/A N/A NW12G18     N/A
PTA WEST*        N/A     73  64  73 N12G20      N/A
NENE CABIN*    NOT AVBL
AHUMOA*        NOT AVBL
PTA PORTABLE*  NOT AVBL
PUU MALI*        N/A     61  59  94 NE12G17     N/A
$$

HIC003-022300-
NORTHWEST ISLANDS-

CITY           SKY/WX    TMP DP  RH WIND       PRES   REMARKS
MIDWAY ISLAND  SUNNY     86  77  74 SE13      29.95S HAZE    HX  97
MIDWAY NOS*    NOT AVBL
FRENCH FRIGATE NOT AVBL
$$

PHZ110>124-180-022300-
BUOY REPORTS

STATION/POSITION TIME  TEMP    WIND        PRES    WAVE   SWELL
                       AIR SEA DIR/SP/G            HT/PER HT/DIR
                 (UTC) (F)     (DEG/KT/KT) (MB)    (FT/S) (FT/D)
BUOY 51001       2143   81 83  350/ 16/ 19 1010.6    9/12   8/ 80
BUOY 51101       2200   81 82  350/ 16/ 17 1010.2F  11/12  10/ 60
BUOY 51100       NOT AVBL
BUOY 51002       2200   83 85  200/  4/  6 1011.4F   7/16   7/ 90
BUOY 51003       2200   82 85   90/  2/  4 1010.9F   9/16   8/100
BUOY 51004       2124   82 85   70/  8/ 10 1012.3F   7/16   7/110
BARBERS PT BUOY  NOT AVBL
WAIMEA BAY BUOY  2200      83                N/A     9/11   7/ 30
KAILUA BAY BUOY  2200      85                N/A    10/11   8/ 10
LANAI BUOY       NOT AVBL
BARBERS PT 2     2200      83                N/A     4/11   2/230
PAUWELA MAUI     2200      82                N/A    10/15   8/ 90
HILO             NOT AVBL
KANEOHE BAY BUOY 2200      85                N/A     8/17   7/ 60
HANALEI KAUAI    2200      83                N/A    10/11   7/ 40
KAHULUI HARBOR   2200   85 83  180/ 16/ 22 1010.8F
HONOLULU HARBOR  2200   82 83  230/  6/  9 1011.2F
KILO NALU        NOT AVBL
HILO HARBOR      2200   84 81   20/ 14/ 16 1011.2F
MOKUOLOE         2200          270/  2/  6   N/A
NAWILIWILI       2200   82 84  140/ 11/ 12 1010.5F
WHOTS BUOY       NOT AVBL
BUOY 51028       NOT AVBL
$$

......................KEY........................................
  SKY/WX - SKY CONDITIONS/PRESENT WEATHER
  TMP    - TEMPERATURE IN FAHRENHEIT
  DWPT   - DEWPOINT IN FAHRENHEIT
  RH     - RELATIVE HUMIDITY IN PERCENT
  WIND   - DIRECTION AND SPEED /MPH FOR ISLANDS...KTS FOR BUOYS/
  PRES   - MEAN SEA LEVEL PRESSURE IN INCHES OF HG
  VSB    - VISIBILITY IN MILES
  HX     - HEAT INDEX
  WCI    - WIND CHILL INDEX
  VRB    - VARIABLE WIND DIRECTION
  N/A    - NOT AVAILABLE


USA.gov is the U.S. government's official web portal to all federal, state and local government web resources and services.